Weather History for Branson, MO

Change the Weather History Date:

Monday, January 16, 2012

  Actual Average (KHRO) Record (KHRO)
Temperature  
Mean Temperature 60 °F 36 °F  
Max Temperature 66 °F 46 °F 74 °F (1943)
Min Temperature 53 °F 26 °F -1 °F (1977)
Degree Days  
Heating Degree Days 6 29  
Month to date heating degree days 464  
Since 1 July heating degree days 2063  
Cooling Degree Days 0 0  
Month to date cooling degree days 0  
Year to date cooling degree days 0  
Growing Degree Days 10 (Base 50)    
Moisture  
Dew Point 48 °F    
Average Humidity 66    
Maximum Humidity 73    
Minimum Humidity 56    
Precipitation  
Precipitation 0.00 in 0.09 in 1.75 in (1932)
Month to date precipitation 1.35  
Year to date precipitation 1.35  
Snow  
Snow 0.00 in 0.10 in 4.00 in (1978)
Month to date snowfall 1.6  
Since 1 July snowfall 3.4  
Snow Depth -    
Sea Level Pressure  
Sea Level Pressure 29.87 in    
Wind  
Wind Speed 13 mph (SSW)    
Max Wind Speed 23 mph    
Max Gust Speed 45 mph    
Visibility 10 miles    
Events      
T = Trace of Precipitation, MM = Missing Value Source: NWS Daily Summary

Daily Weather History Graph

Daily Weather History Graph

Search for Another Location

Airport:

Trip Planner

Search our weather history database for the weather conditions in past years. The results will help you decide how hot, cold, wet, or windy it might be!

Date:

Astronomy

Jan. 16, 2012 Rise Set
Actual Time 7:23 AM CST 5:21 PM CST
Civil Twilight 6:55 AM CST 5:49 PM CST
Nautical Twilight 6:24 AM CST 6:21 PM CST
Astronomical Twilight 5:53 AM CST 6:52 PM CST
Moon 12:36 AM CST (1/16) 11:33 AM CST (1/16)
Length of Visible Light 10h 53m
Length of Day
9h 57m
Last Quarter, 46% of the Moon is Illuminated
Jan 16
Last Quarter
Jan 23
New
Jan 30
First Quarter
Feb 7
Full
Feb 14
Last Quarter

Hourly Weather History & Observations

Time (CST) Temp. Dew Point Humidity Pressure Visibility Wind Dir Wind Speed Gust Speed Precip Events Conditions
2:35 AM 53.6 °F 41.0 °F 62% 29.96 in 10.0 mi South 8.1 mph 21.9 mph N/A   Partly Cloudy
2:55 AM 53.6 °F 41.0 °F 62% 29.95 in 10.0 mi SSW 12.7 mph 18.4 mph N/A   Scattered Clouds
3:15 AM 55.4 °F 42.8 °F 63% 29.95 in 10.0 mi South 10.4 mph 20.7 mph N/A   Scattered Clouds
3:35 AM 55.4 °F 44.6 °F 67% 29.94 in 10.0 mi SSW 13.8 mph 23.0 mph N/A   Scattered Clouds
3:55 AM 55.4 °F 44.6 °F 67% 29.93 in 10.0 mi South 12.7 mph 21.9 mph N/A   Scattered Clouds
4:15 AM 55.4 °F 44.6 °F 67% 29.92 in 10.0 mi South 10.4 mph 20.7 mph N/A   Partly Cloudy
4:35 AM 55.4 °F 44.6 °F 67% 29.91 in 10.0 mi South 12.7 mph 25.3 mph N/A   Clear
4:55 AM 55.4 °F 44.6 °F 67% 29.92 in 10.0 mi South 10.4 mph 18.4 mph N/A   Clear
5:15 AM 55.4 °F 46.4 °F 72% 29.91 in 10.0 mi South 12.7 mph 20.7 mph N/A   Clear
5:35 AM 55.4 °F 46.4 °F 72% 29.91 in 10.0 mi SSW 12.7 mph 20.7 mph N/A   Scattered Clouds
5:55 AM 55.4 °F 46.4 °F 72% 29.91 in 10.0 mi South 10.4 mph 17.3 mph N/A   Mostly Cloudy
6:15 AM 57.2 °F 48.2 °F 72% 29.92 in 10.0 mi SSW 15.0 mph 23.0 mph N/A   Mostly Cloudy
6:35 AM 57.2 °F 48.2 °F 72% 29.92 in 10.0 mi South 9.2 mph 17.3 mph N/A   Overcast
6:48 AM 57.2 °F 48.2 °F 72% 29.92 in 10.0 mi South 18.4 mph 27.6 mph N/A   Overcast
7:48 AM 57.2 °F 48.2 °F 72% 29.89 in 10.0 mi South 20.7 mph 34.5 mph N/A   Mostly Cloudy
8:46 AM 59.0 °F 48.2 °F 67% 29.90 in 10.0 mi SSW 19.6 mph 31.1 mph N/A   Mostly Cloudy
9:46 AM 60.8 °F 50.0 °F 68% 29.90 in 10.0 mi SSW 23.0 mph 44.9 mph N/A   Overcast
10:46 AM 64.4 °F 50.0 °F 59% 29.90 in 10.0 mi SSW 16.1 mph 28.8 mph N/A   Mostly Cloudy
11:45 AM 64.4 °F 50.0 °F 59% 29.89 in 10.0 mi SSW 19.6 mph 39.1 mph N/A   Mostly Cloudy
1:46 PM 66.2 °F 50.0 °F 56% 29.81 in 10.0 mi SSW 17.3 mph 28.8 mph N/A   Mostly Cloudy
2:45 PM 66.2 °F 50.0 °F 56% 29.80 in 10.0 mi SSW 9.2 mph 20.7 mph N/A   Mostly Cloudy
3:45 PM 66.2 °F 50.0 °F 56% 29.80 in 10.0 mi South 11.5 mph 19.6 mph N/A   Mostly Cloudy
4:45 PM 66.2 °F 50.0 °F 56% 29.80 in 10.0 mi SW 9.2 mph - N/A   Mostly Cloudy
5:45 PM 64.4 °F 51.8 °F 64% 29.79 in 10.0 mi South 15.0 mph 19.6 mph N/A   Scattered Clouds
6:45 PM 64.4 °F 53.6 °F 68% 29.80 in 10.0 mi South 11.5 mph 17.3 mph N/A   Scattered Clouds
8:45 PM 64.4 °F 53.6 °F 68% 29.78 in 10.0 mi SSW 17.3 mph 29.9 mph N/A   Scattered Clouds
11:15 PM 66.2 °F 55.4 °F 68% 29.76 in 10.0 mi SSW 17.3 mph 25.3 mph N/A   Overcast
11:35 PM 64.4 °F 55.4 °F 73% 29.75 in 10.0 mi SSW 17.3 mph 27.6 mph N/A   Overcast
11:55 PM 64.4 °F 55.4 °F 73% 29.75 in 10.0 mi SSW 12.7 mph 27.6 mph N/A   Overcast